Location: Washington
(38.8950°N, 77.0370°W)
Time: 05:20:41
(UTC-04:00)

IDEFIX/ARIANE 42P - Visible Passes

Search period start: 26 March 2017 00:00
Search period end: 05 April 2017 00:00
Orbit: 784 x 804 km, 98.2° (Epoch: 24 March)

Date Brightness Start Highest point End Pass type
(mag) Time Alt. Az. Time Alt. Az. Time Alt. Az.
26 Mar 4.7 06:27:27 10° NE 06:32:03 31° E 06:36:37 10° SSE visible
27 Mar 5.5 06:00:12 10° NE 06:03:30 17° E 06:06:48 10° SE visible
30 Mar 5.2 06:14:09 10° NE 06:18:17 24° E 06:22:24 10° SSE visible
31 Mar 5.8 05:47:34 10° ENE 05:49:41 12° E 05:51:47 10° ESE visible
01 Apr 6.2 19:57:22 10° WSW 19:58:50 11° W 20:00:18 10° WNW visible
03 Apr 5.5 06:01:02 10° NE 06:04:30 18° E 06:07:57 10° SE visible
